Left ArrowRight Arrow

38.20091, -84.87328

Hourly Observations for June 17, 2024

Temp ( °F °C ) Dew Point ( °F °C ) Humidity (%) Winds ( mph kmh ) Pressure ( in mb ) Visibility ( mi km ) Precip ( " mm )
12:53 am 00:53 Clear 81 27.2 72 22.2 74 74 SSW 7 11 30.00 1016 10 16 0.00 0.00
1:53 am 01:53 Clear 81 27.2 72 22.2 74 74 SSW 7 11 30.01 1016 10 16 0.00 0.00
2:53 am 02:53 Clear 78 25.6 71 21.7 79 79 Calm 30.01 1016 10 16 0.00 0.00
3:53 am 03:53 Mostly Cloudy 76 24.4 71 21.7 85 85 SSW 3 6 30.01 1016 10 16 0.00 0.00
4:53 am 04:53 Clear 74 23.3 70 21.1 87 87 S 3 6 30.02 1017 10 16 0.00 0.00
5:53 am 05:53 Clear 73 22.8 69 20.6 87 87 Calm 30.04 1017 10 16 0.00 0.00
6:53 am 06:53 Sunny 74 23.3 70 21.1 87 87 Calm 30.05 1018 10 16 0.00 0.00
7:53 am 07:53 Sunny 78 25.6 71 21.7 79 79 SSW 3 6 30.06 1018 10 16 0.00 0.00
8:53 am 08:53 Sunny 81 27.2 71 21.7 72 72 SSW 8 13 30.07 1018 10 16 0.00 0.00
9:53 am 09:53 Sunny 85 29.4 72 22.2 65 65 SSW 9 15 30.08 1019 10 16 0.00 0.00
10:53 am 10:53 Sunny 87 30.6 72 22.2 61 61 SW 9 15 30.09 1019 10 16 0.00 0.00
11:53 am 11:53 Sunny 89 31.7 72 22.2 57 57 SW 15 24 30.09 1019 10 16 0.00 0.00
12:53 pm 12:53 Mostly Sunny 90 32.2 73 22.8 58 58 SW 9 15 30.09 1019 10 16 0.00 0.00
1:53 pm 13:53 Sunny 91 32.8 72 22.2 54 54 SW 8 13 30.07 1018 10 16 0.00 0.00
2:53 pm 14:53 Mostly Cloudy 91 32.8 72 22.2 54 54 VRB 3 6 30.05 1018 10 16 0.00 0.00
3:53 pm 15:53 Mostly Sunny 93 33.9 71 21.7 49 49 SSW 9 15 30.03 1017 10 16 0.00 0.00
4:53 pm 16:53 Mostly Sunny 93 33.9 70 21.1 47 47 S 12 19 30.01 1016 10 16 0.00 0.00
5:53 pm 17:53 Mostly Sunny 92 33.3 69 20.6 47 47 SSW 10 17 30.01 1016 10 16 0.00 0.00
6:53 pm 18:53 Sunny 92 33.3 70 21.1 49 49 SSW 8 13 30.00 1016 10 16 0.00 0.00
7:53 pm 19:53 Sunny 90 32.2 70 21.1 52 52 SSW 7 11 30.01 1016 10 16 0.00 0.00
8:53 pm 20:53 Sunny 87 30.6 70 21.1 57 57 S 6 9 30.02 1017 10 16 0.00 0.00
9:53 pm 21:53 Clear 85 29.4 70 21.1 61 61 Calm 30.04 1017 10 16 0.00 0.00
10:53 pm 22:53 Clear 84 28.9 71 21.7 65 65 SSE 5 7 30.05 1018 10 16 0.00 0.00
11:53 pm 23:53 Clear 82 27.8 71 21.7 69 69 SSE 7 11 30.05 1018 10 16 0.00 0.00

Powered by Vaisala Xweather